Regional Weather Roundup
Issued by NWS

Home | Current Version | Previous Version | Text Only | Print | Product List | Glossary Off
Versions: 1 2 3 4 5 6 7 8 9 10 11 12 13 14 15 16 17 18 19 20 21 22 23 24 25 26 27 28 29 30 31 32 33 34 35 36 37 38 39 40 41 42 43 44 45 46 47 48 49 50

000
ASUS43 KLSX 181057
RWRMO

WEATHER SUMMARY FOR MISSOURI
NATIONAL WEATHER SERVICE SPRINGFIELD MO
500 AM CST SUN FEB 18 2018

NOTE: "FAIR" INDICATES FEW OR NO CLOUDS BELOW 12,000 FEET WITH NO
       SIGNIFICANT WEATHER AND/OR OBSTRUCTIONS TO VISIBILITY.
       CURRENT SKY AND/OR WEATHER CONDITIONS ARE NOT AVAILABLE FOR
       CHILLICOTHE AND FARMINGTON.

MOZ001>031-035>038-043-044-053-054-181200-
...NORTHERN AND WESTERN MISSOURI...

CITY           SKY/WX    TMP DP  RH WIND       PRES   REMARKS
KANSAS CTY INT CLOUDY    37  26  64 S14       30.09F WCI  28
LEE`S SUMMIT   CLOUDY    37  31  78 S12       30.12F WCI  29
ST JOSEPH      CLOUDY    31  22  69 S8        30.07F WCI  23
CHILLICOTHE      N/A     30  20  66 S5        30.16R WCI  25

$$
MOZ066>068-077>081-088>096-101>105-181200-
...SOUTHWEST MISSOURI...

CITY           SKY/WX    TMP DP  RH WIND       PRES   REMARKS
SPRINGFIELD    CLOUDY    33  32  96 SE10      30.17F WCI  25
JOPLIN         CLOUDY    36  34  92 SE7       30.16F

$$
MOZ032>034-039>042-045>050-055>058-069>072-181200-
...CENTRAL MISSOURI...

CITY           SKY/WX    TMP DP  RH WIND       PRES   REMARKS
COLUMBIA       NOT AVBL
JEFFERSON CITY CLOUDY    26  24  92 CALM      30.23R
ROLLA          CLOUDY    32  29  88 S9        30.22S WCI  24
SEDALIA        CLOUDY    35  32  88 S10       30.18F WCI  27
WARRENSBURG    CLOUDY    32  28  86 S6        30.16F WCI  26

$$
MOZ051-052-059>065-181200-
...EAST CENTRAL MISSOURI...

CITY           SKY/WX    TMP DP  RH WIND       PRES   REMARKS
ST LOUIS INTL  CLOUDY    29  27  92 SE8       30.26F WCI  21
ST CHARLES     CLOUDY    23  22  96 NE5       30.26F FOG     WCI  17

$$
MOZ072>076-082>087-097>100-106>115-181200-
...SOUTH CENTRAL AND SOUTHEAST MISSOURI...

CITY           SKY/WX    TMP DP  RH WIND       PRES   REMARKS
CAPE GIRARDEAU FOG       30  29  96 E5        30.31S VSB 1/4 WCI  25
FARMINGTON     FOG       23  21  93 CALM      30.27F VSB 1/4
POPLAR BLUFF   FAIR      29  29 100 N3        30.30R
WEST PLAINS    FOG       27  25  92 CALM      30.24F VSB 1/4

$$


USA.gov is the U.S. government's official web portal to all federal, state and local government web resources and services.